Location: Holcomb Observatory
(44.4922°N, 73.1654°W)
Time: 00:33:16
(UTC-04:00)

Daily predictions for brighter satellites

Satellite Brightness Start Highest point End
(mag) Time Altitude Azimuth Time Altitude Azimuth Time Altitude Azimuth
CZ-4B R/B 3.3 00:04:51 24° NNE 00:04:51 24° NNE 00:06:31 10° N
ISS -0.9 00:05:24 20° NE 00:05:24 20° NE 00:06:41 10° NE
Cosmos 1833 Rocket 3.9 00:00:37 10° NW 00:05:23 29° WSW 00:06:17 28° WSW
Terra 3.8 00:04:36 16° WSW 00:05:48 18° W 00:09:00 10° NW
Meteor 2-15 4.3 00:00:23 10° N 00:06:34 87° E 00:07:45 60° SSE
Cosmos 1315 Rocket 3.6 00:10:58 45° NE 00:10:58 45° NE 00:13:53 10° NNE
NOSS 3-1 (A) 4.0 00:05:34 10° NW 00:13:07 83° NE 00:16:16 42° SE
Cosmos 1633 3.5 00:14:17 47° N 00:14:17 47° N 00:17:03 10° N
Cosmos 1943 Rocket 3.7 00:14:56 22° E 00:14:56 22° E 00:18:34 10° NE
Lacrosse 5 rocket 3.3 00:17:41 19° NE 00:17:41 19° NE 00:18:51 10° NE
H-2A R/B 4.3 00:15:17 12° WSW 00:17:18 15° W 00:20:12 10° NW
Landsat 5 4.0 00:17:46 55° ENE 00:17:46 55° ENE 00:21:42 10° N
Meteor 2-4 Rocket 3.6 00:14:53 10° NNW 00:20:19 74° W 00:20:52 67° SW
Lacrosse 5 2.1 00:22:40 55° E 00:22:40 55° E 00:26:51 10° NE
Cosmos 2082 Rocket 4.1 00:18:32 10° WNW 00:22:05 17° W 00:23:06 16° WSW
Cosmos 1354 Rocket 3.9 00:17:42 10° NNW 00:22:59 76° WSW 00:23:13 75° SW
Cosmos 1821 Rocket 4.3 00:21:38 43° SW 00:23:29 60° WNW 00:29:40 10° N
Cosmos 1605 Rocket 3.9 00:22:39 60° S 00:23:56 84° E 00:30:23 10° N
Meteor 1-11 Rocket 4.3 00:22:42 41° WSW 00:24:20 54° WNW 00:30:00 10° N
Cosmos 2285 Rocket 3.9 00:24:14 61° S 00:25:26 82° ESE 00:31:52 10° NNE
Cosmos 1892 Rocket 3.8 00:22:12 10° NNW 00:26:05 63° NW 00:26:05 63° NW
SL-8 R/B 4.2 00:23:47 10° WNW 00:28:33 58° N 00:30:39 31° ENE
H-2A R/B 2.8 00:24:51 10° NNE 00:29:00 70° NE 00:29:00 70° NE
Cosmos 2263 4.3 00:32:30 55° ESE 00:32:30 55° ESE 00:37:57 10° NNE
Gbstr 26 Del rocket 4.1 00:28:35 10° WNW 00:31:25 34° WNW 00:31:25 34° WNW
ATLAS 2AS CENTAUR R/B 3.6 00:26:29 10° NNW 00:34:28 53° NE 00:39:40 22° ESE
Cosmos 2123 Rocket 4.2 00:31:48 10° NNW 00:37:57 59° W 00:39:07 51° SW
Cosmos 1346 Rocket 3.7 00:34:08 10° N 00:37:07 44° NNE 00:37:07 44° NNE
Genesis I 4.1 00:39:01 50° N 00:39:01 50° N 00:42:10 10° NNE
Cosmos 1153 Rocket 4.4 00:37:33 62° SSE 00:38:39 77° E 00:44:59 10° N
Cosmos 1934 Rocket 4.4 00:38:39 42° WSW 00:40:11 52° WNW 00:46:06 10° N
Cosmos 2173 Rocket 4.4 00:40:45 43° ESE 00:41:45 47° E 00:47:47 10° NNE
Cosmos 1536 4.2 00:43:44 32° WNW 00:43:44 32° WNW 00:47:02 10° N
NOSS 3-1 (C) 4.2 00:36:58 10° NW 00:44:22 58° WSW 00:46:09 49° SSW
Cosmos 1400 Rocket 4.4 00:45:56 29° WNW 00:45:56 29° WNW 00:49:32 10° N
Cosmos 1602 Rocket 3.8 00:43:01 10° N 00:47:00 65° NE 00:47:00 65° NE
USA 234 4.2 00:41:51 10° NE 00:48:01 46° NNW 00:54:10 10° W
ALOS 2 3.4 00:49:23 42° WNW 00:49:23 42° WNW 00:53:00 10° NNW
Cosmos 1833 4.5 00:46:45 10° NNW 00:52:20 61° ENE 00:53:24 52° ESE
Cosmos 1626 Rocket 3.8 00:48:40 10° N 00:52:40 69° NNE 00:52:40 69° NNE
Cosmos 1992 Rocket 3.8 00:54:41 82° ESE 00:54:41 82° ESE 00:59:55 10° NNE
Cosmos 2084 Rocket 4.3 00:52:56 10° NW 00:55:33 41° NW 00:55:33 41° NW
Cosmos 1455 Rocket 3.6 00:57:31 52° NW 00:57:31 52° NW 01:01:24 10° N
Cosmos 1975 3.6 00:59:41 49° NNE 00:59:41 49° NNE 01:02:47 10° NNE
MOS 1-B Rocket 4.0 01:01:46 59° SW 01:02:39 66° WSW 01:09:20 10° NNW
Cosmos 2369 Rocket 2.7 01:12:50 43° WSW 01:14:09 52° WNW 01:19:39 10° NNE
SL-24 DEB 4.4 01:10:45 10° N 01:15:23 66° E 01:15:23 66° E
Cosmos 1743 4.2 01:18:42 32° ENE 01:18:42 32° ENE 01:21:21 10° NNE
Cosmos 2219 3.7 01:15:03 10° NNW 01:20:36 54° ENE 01:22:16 40° ESE
Cosmos 1066 Rocket 3.9 01:17:31 10° N 01:22:55 82° E 01:23:20 75° SE
Cosmos 2227 Rocket 4.4 01:21:36 10° N 01:25:49 21° NE 01:30:00 10° E
CZ-2C R/B 2.6 01:23:42 10° N 01:28:53 67° WNW 01:29:23 63° WSW
CZ-2C R/B 2.9 01:29:51 76° WSW 01:29:52 76° WSW 01:34:49 10° NNW
Cosmos 1340 4.5 01:26:45 10° NNE 01:29:55 25° ENE 01:29:55 25° ENE
Cosmos 1606 Rocket 4.2 01:33:10 47° ENE 01:33:10 47° ENE 01:36:56 10° NNE
GP-B 3.8 01:29:43 10° N 01:33:36 45° WNW 01:33:36 45° WNW
ISS -0.8 01:38:07 10° NW 01:40:46 22° N 01:43:26 10° ENE
PSLV R/B 4.3 01:41:53 61° NNW 01:41:53 61° NNW 01:45:21 10° NNW
UNK 3.9 01:29:55 10° WSW 01:42:46 81° NNW 01:46:22 10° ENE
Cosmos 2100 Rocket 4.4 01:44:59 45° WSW 01:46:25 54° WNW 01:52:40 10° N
Cosmos 2297 Rocket 4.4 01:43:18 10° N 01:47:36 22° NE 01:51:53 10° E
SeaSat 1 2.4 01:47:23 66° SE 01:48:02 80° ENE 01:52:59 10° NNW
Cosmos 2058 Rocket 3.7 01:49:06 47° E 01:49:06 47° E 01:53:19 10° NNE
Cosmos 1666 3.9 01:50:29 36° ENE 01:50:29 36° ENE 01:53:27 10° NNE
Cosmos 1656 Rocket 3.6 01:52:01 63° SSE 01:52:43 71° ESE 01:58:21 10° NNE
Lacrosse 5 rocket 3.2 01:53:23 19° NW 01:54:39 22° NNW 01:57:38 10° NNE
Cosmos 2061 Rocket 4.5 01:54:19 42° WSW 01:55:52 50° WNW 02:02:07 10° N
Cosmos 1500 4.5 01:58:09 34° NW 01:58:09 34° NW 02:01:00 10° N
Cosmos 1943 Rocket 2.5 01:56:26 46° WSW 01:57:36 55° WNW 02:03:08 10° NNE
Cosmos 1953 Rocket 3.6 01:53:44 10° N 01:57:43 74° NNW 01:57:43 74° NNW
Cosmos 968 Rocket 3.9 01:58:34 10° NNW 02:03:20 47° W 02:03:20 47° W
Lacrosse 5 3.3 02:01:49 17° W 02:05:05 34° NNW 02:09:44 10° NE
Cosmos 2233 Rocket 4.2 02:03:29 45° SSE 02:05:14 63° E 02:11:17 10° NNE
NOSS 3-3 (A) 4.0 02:04:20 53° S 02:05:42 67° ESE 02:12:22 10° NE
NOSS 3-3 (C) 4.1 02:04:25 53° S 02:05:47 66° ESE 02:12:28 10° NE
Cosmos 2016 Rocket 4.3 02:06:32 45° WSW 02:07:52 53° WNW 02:13:50 10° N
Cosmos 1726 Rocket 3.5 02:09:50 76° NW 02:09:50 76° NW 02:14:00 10° N
Cosmos 1825 Rocket 4.2 02:05:30 10° NNW 02:09:18 44° WNW 02:09:18 44° WNW
Cosmos 1818 4.3 02:09:31 34° W 02:11:17 45° NW 02:16:34 10° NNE
Cosmos 2098 Rocket 4.2 02:09:41 49° SSW 02:11:44 80° W 02:19:18 10° N
Cosmos 1758 Rocket 3.9 02:17:52 10° NNW 02:22:05 54° W 02:22:05 54° W
ATLAS 2AS CENTAUR R/B 3.3 02:17:53 10° NW 02:25:26 45° WSW 02:27:02 40° SW
Uosat 12 SS-18 rocket 4.4 02:22:36 10° NNW 02:27:13 77° NE 02:30:04 27° SE
Cosmos 44 Rocket 4.1 02:24:28 10° NW 02:28:22 36° W 02:28:22 36° W
Meteor 2-17 Rocket 4.4 02:28:56 47° S 02:30:52 90° W 02:37:02 10° N
ERS-2 3.7 02:30:06 10° NE 02:33:18 26° E 02:33:47 25° ESE
Cosmos 2208 Rocket 3.9 02:35:00 57° SSW 02:36:06 83° WNW 02:41:24 10° NNE
AQUA 4.3 02:32:15 10° NNE 02:36:56 54° E 02:38:10 41° SSE
ATLAS CENTAUR R/B 3.5 02:38:00 20° SE 02:39:21 22° ESE 02:43:09 10° ENE
GENESIS II 4.3 02:39:19 69° SE 02:39:24 70° ESE 02:43:33 10° NE
Abrixas 3.9 02:40:13 36° N 02:40:24 36° N 02:43:17 10° ENE
Cosmos 1707 4.3 02:38:18 10° N 02:41:53 33° ENE 02:43:41 22° ESE
Cosmos 2298 Rocket 4.4 02:40:03 10° NNW 02:45:19 62° ENE 02:49:09 18° SE
Milstar 3 Cent rocket 4.4 02:47:57 11° SE 02:47:57 11° SE 02:48:24 10° SE
BREEZE-M DEB (TANK) 2.1 02:40:34 10° WNW 02:46:35 75° WSW 02:46:35 75° WSW
CBERS-1 4.1 02:41:45 10° NNE 02:46:54 69° ESE 02:48:36 42° S
Meteor 1-15 Rocket 4.4 02:50:43 42° SW 02:52:35 65° WNW 02:58:28 10° N
CZ-2D R/B 3.7 02:52:02 10° NE 02:56:44 28° E 03:00:40 13° SSE
Cosmos 2082 3.7 02:52:55 10° NNW 02:58:36 84° ENE 03:03:04 17° SSE
IRS-1C 4.2 02:53:19 10° NNE 02:58:40 72° ESE 03:00:54 36° S
Cosmos 2034 Rocket 4.4 02:56:40 24° SSE 03:00:24 58° E 03:06:29 10° NNE
Meteor 2-5 Rocket 3.9 02:54:56 10° N 03:00:49 78° E 03:04:43 23° SSE
SL-16 R/B 3.3 02:54:54 10° SE 03:00:50 51° ENE 03:06:46 10° N
Cosmos 1697 Rocket 4.3 02:57:51 16° SSE 03:01:14 27° ESE 03:05:54 10° NE
Cosmos 220 Rocket 4.1 02:57:56 10° NNW 03:02:18 73° ENE 03:04:30 28° SSE
Cosmos 2228 3.7 03:02:32 37° W 03:03:04 39° WNW 03:07:07 10° N
USA 161 2.6 03:03:09 37° E 03:03:35 40° ENE 03:06:18 10° N
Cosmos 2219 4.4 02:59:57 10° NW 03:04:08 24° W 03:04:08 24° W
SL-08 R/B 3.3 03:03:26 46° SSW 03:04:29 58° W 03:09:06 10° NNW
Cosmos 1340 4.4 03:02:34 10° NW 03:04:48 21° WNW 03:04:48 21° WNW
Cosmos 1980 Rocket 4.3 03:05:07 10° SE 03:08:56 19° E 03:12:45 10° ENE
Cosmos 2227 Rocket 2.1 03:04:50 10° NNW 03:10:32 76° WSW 03:14:29 20° SSE
Cosmos 44 3.9 03:08:49 10° NW 03:13:30 36° WSW 03:13:39 36° WSW
Cosmos 858 Rocket 4.5 03:08:57 10° NNW 03:14:13 86° ENE 03:18:31 16° SSE
ISS -2.1 03:14:37 10° NW 03:17:46 43° NNE 03:20:54 10° E
Cosmos 468 Rocket 4.1 03:16:49 32° S 03:19:14 73° ESE 03:24:24 10° NNE
NOSS 2-1 (D) 3.5 03:20:55 41° S 03:22:08 64° ESE 03:26:33 10° NE
NOSS 2-1 (C) 3.5 03:22:15 40° S 03:23:29 64° ESE 03:27:55 10° NE
Cosmos 2150 Rocket 3.9 03:18:49 10° NNW 03:24:03 72° WSW 03:27:36 20° S
SeaSat 1 4.4 03:27:11 14° W 03:27:11 14° W 03:28:47 10° WNW
Cosmos 2278 3.7 03:25:11 31° SW 03:27:56 71° WNW 03:33:38 10° NNE
GEOS 3 Rocket 3.6 03:22:44 10° SE 03:27:58 90° NE 03:33:10 10° NW
Cosmos 2369 3.7 03:25:57 31° SSW 03:28:46 79° WNW 03:34:28 10° NNE
Cosmos 1812 Rocket 4.0 03:27:58 35° SW 03:29:23 47° WNW 03:33:44 10° N
Cosmos 2297 Rocket 2.1 03:26:35 10° NNW 03:32:14 72° WSW 03:37:51 10° SSE
Lacrosse 5 rocket 4.1 03:33:36 10° NNW 03:35:03 12° N 03:36:29 10° NNE
Cosmos 405 Rocket 3.2 03:33:32 10° NNW 03:37:27 44° W 03:38:36 34° SW
UNK 3.8 03:33:45 13° SSE 03:37:54 84° ENE 03:42:36 10° NNW
Cosmos 1898 Rocket 3.7 03:32:44 10° NNW 03:37:57 54° WSW 03:41:29 20° S
NOSS 2-1 (E) 3.4 03:36:52 34° SSW 03:38:32 83° SE 03:43:12 10° NE
Cosmos 1766 3.6 03:38:10 22° S 03:40:33 63° E 03:44:28 10° NNE
NPP 4.5 03:35:58 10° N 03:40:52 36° WNW 03:43:33 22° WSW
Resurs 1-4 Rocket 2.3 03:38:05 10° NNE 03:43:23 72° ESE 03:47:23 18° S
Cosmos 1464 Rocket 4.4 03:42:22 24° SW 03:45:56 49° WNW 03:52:06 10° N
BREEZE-M DEB (TANK) 3.7 03:44:29 22° SSW 03:47:07 38° SE 03:50:56 10° ENE
NOSS 3-4 (A) 3.7 03:41:33 10° NW 03:48:31 76° SW 03:55:53 10° SSE
NOSS 3-4 (C) 3.7 03:41:39 10° NW 03:48:39 77° SW 03:56:03 10° SSE
Lacrosse 5 4.3 03:45:39 10° NW 03:49:23 20° N 03:53:06 10° NE
Meteor 1-22 Rocket 4.4 03:45:59 18° S 03:50:39 89° W 03:56:49 10° N
Meteor 1-24 Rocket 3.7 03:45:34 10° NNW 03:51:13 71° W 03:57:00 10° S
UNKNOWN OBJECT B 3.3 03:47:44 10° NNE 03:51:38 56° E 03:54:35 16° S
ADEOS 4.0 03:46:40 10° N 03:51:41 49° WNW 03:54:45 22° SW
Cosmos 841 Rocket 3.9 03:48:13 17° S 03:52:16 61° ESE 03:57:29 10° NNE
Cosmos 1937 Rocket 3.6 03:47:29 10° NNW 03:52:33 55° WSW 03:57:29 11° S
Cosmos 1758 4.4 03:51:38 10° SSE 03:55:27 43° E 03:59:16 10° NNE
Cosmos 1378 3.1 03:53:21 10° N 03:57:10 80° W 04:00:19 14° S
Okean 3 Rocket 4.2 03:54:03 10° NNW 03:58:08 38° W 04:00:20 23° SW
Cosmos 1763 Rocket 3.5 03:56:08 18° SSW 04:00:05 81° ESE 04:05:18 10° NNE
Cosmos 1092 Rocket 4.0 03:54:12 10° N 04:00:30 87° W 04:06:50 10° S
ARIANE 5 R/B 2.7 03:56:22 10° N 04:01:25 62° WNW 04:05:07 19° SSW
Cosmos 1953 3.0 03:57:40 10° S 04:01:31 53° E 04:05:29 10° NNE
MTI 3.8 04:01:26 10° SSE 04:04:42 88° E 04:08:01 10° NNW
EO 1 Del DPAF 3.3 04:02:20 15° S 04:05:25 57° W 04:09:16 10° NNW
ERS-2 3.7 04:03:59 10° NNW 04:06:58 23° WNW 04:08:37 17° WSW
BREEZE-M DEB (TANK) 2.8 04:04:08 14° WSW 04:08:29 68° NNW 04:10:55 10° ENE
NOSS 7 (D) 4.4 04:06:57 23° SSW 04:08:58 77° SE 04:12:24 10° NE
CZ-4B R/B 4.3 04:04:28 10° NNE 04:09:45 42° E 04:14:53 10° S
CZ-2D R/B 3.8 04:07:09 10° NNE 04:11:28 72° ESE 04:15:52 10° S
Cosmos 1437 3.7 04:10:01 10° N 04:13:19 52° ENE 04:16:34 10° SSE
Cosmos 1805 3.6 04:10:35 10° S 04:14:27 66° E 04:18:21 10° NNE
Cosmos 1441 Rocket 3.4 04:11:10 10° NNW 04:15:06 58° W 04:19:02 10° S
Abrixas 2.8 04:13:37 10° WNW 04:16:41 69° NNE 04:19:46 10° ESE
Cosmos 1707 4.4 04:14:50 10° NW 04:17:36 19° W 04:18:54 16° WSW
ATLAS CENTAUR R/B 2.1 04:14:20 17° SW 04:18:07 59° NW 04:23:04 10° NNE
Thor Agena Rocket 4.2 04:15:07 10° SSE 04:20:02 56° ENE 04:24:59 10° N
GPS 2-04 Rocket1 4.1 04:19:02 17° SSW 04:20:40 22° S 04:23:40 10° SE
Meteor 1-21 Rocket 4.4 04:18:34 10° N 04:24:31 88° E 04:30:27 10° S
MOZ.5/SAFIR/RUBIN 5/SL-8 4.0 04:20:32 10° SSE 04:25:14 78° ENE 04:29:57 10° N
IRS-1D 4.1 04:20:47 10° N 04:25:24 40° WNW 04:29:23 13° SW
Cosmos 1461 4.0 04:22:15 10° NNW 04:26:19 47° NE 04:30:12 10° SE
Cosmos 1656 4.1 04:23:00 15° SW 04:27:38 50° WNW 04:33:08 10° NNE
Cosmos 2142 Rocket 4.5 04:23:15 10° S 04:29:24 81° W 04:35:33 10° N
RESURS DK-1 3.6 04:26:06 10° NNW 04:30:06 46° ENE 04:34:05 10° SE
Cosmos 540 Rocket 4.1 04:28:19 10° S 04:33:20 55° ESE 04:38:24 10° NNE
BREEZE-M DEB (TANK) 4.1 04:32:41 10° WNW 04:36:04 44° N 04:40:40 10° ENE
Cosmos 1500 Rocket 3.7 04:32:10 10° N 04:36:36 80° E 04:40:58 10° S
CZ-2D R/B 2.8 04:31:48 10° N 04:36:56 42° WNW 04:42:00 10° SW
Okean O Rocket 1.6 04:34:45 10° NNE 04:39:10 85° WNW 04:43:34 10° SSW
Cosmos 1743 Rocket 3.6 04:36:40 10° NNW 04:40:58 63° W 04:45:15 10° S
Cosmos 332 Rocket 4.3 04:37:45 10° S 04:42:28 59° ESE 04:47:14 10° NNE
In-Cosmos 22 4.3 04:38:54 10° NNW 04:44:00 51° W 04:49:06 10° S
Cosmos 2151 4.2 04:40:27 10° N 04:44:38 46° ENE 04:48:47 10° SSE
SL-16 R/B 3.4 04:39:31 10° SSW 04:44:43 28° W 04:49:56 10° NW
Cosmos 1697 Rocket 3.2 04:39:37 11° SW 04:44:54 48° WNW 04:50:25 10° NNE
Cosmos 2279 Rocket 4.1 04:38:59 10° S 04:45:15 84° E 04:51:33 10° N
CZ-4B DEB 4.4 04:41:08 10° NNE 04:46:43 78° ESE 04:52:14 10° S
BREEZE-M DEB (TANK) 2.4 04:47:21 10° WNW 04:50:09 81° N 04:55:43 10° E
Cosmos 1980 Rocket 2.3 04:46:44 10° SW 04:52:20 67° WNW 04:58:00 10° NNE
USA 81 4.1 04:48:01 10° SSW 04:53:16 68° W 04:58:34 10° N
IRS-1C Rocket 4.2 04:48:05 10° N 04:53:17 63° WNW 04:58:28 10° SSW
Cosmos 2227 Rocket 4.1 04:52:39 10° W 04:53:33 10° W 04:54:26 10° WSW
ISS -2.6 04:51:11 10° WNW 04:54:08 31° SW 04:57:04 10° SSE
Cosmos 1655 Rocket 4.1 04:49:14 10° NNW 04:55:35 64° W 05:01:52 10° S
CZ-4B R/B 2.8 04:52:07 10° N 04:56:09 83° WNW 04:59:57 10° SSW
ADEOS II 3.4 04:51:19 10° NNE 04:56:19 42° E 05:01:17 10° S
Cosmos 1544 3.2 04:54:18 10° SSW 04:57:55 59° W 05:01:34 10° N
Cosmos 2322 Rocket 2.7 04:57:16 10° S 05:02:47 63° ESE 05:08:20 10° NNE
Centaur D-1A AC-31 4.5 04:48:13 10° SW 05:05:47 23° S 05:11:13 10° SE
